Location: Sungai Bunut
(2.6333°N, 113.7333°E)
Time: 18:04:23
(UTC+00:00)

S-56A Canister/Altair - Pass Details

Date: 04 December 2023
Orbit: 640 x 2488 km, 38.9° (Epoch: 20 February)

Event Time Altitude Azimuth Distance (km) Brightness Sun altitude
Rises 21:11:46 0° 201° (SSW) 5,800 12.0 -15.7°
Reaches altitude 10° 21:20:14 10° 171° (S) 4,314 11.8 -13.7°
Maximum altitude 21:23:09 11° 156° (SSE) 4,014 11.9 -13.1°
Drops below altitude 10° 21:25:50 10° 141° (SE) 3,906 12.1 -12.4°
Sets 21:31:59 0° 108° (ESE) 4,373 13.6 -11.0°
